Погода в Малой Каменке

Россия / Ростовская область     48°19′52″N   40°10′14″E
темп.,
°C
ветер,
м/с
пор.,
м/с
влажн.,
%
обл.,
%
осадки,
мм/ч
давл.,
гПа
погр.,
м
15 мая, сб
сб1500:00+18ююв3385100 0.0 101122
03:00+17зюз1187100 0.0 101111
06:00+18зюз1189100 1.1 101250
09:00+21ссз346038 1.9 1013421
12:00+26с224432 0.0 1013938
15:00+27ссз11385 0.0 10131558
18:00+27с11485 0.0 1013136
21:00+20сз11564 0.0 101311
16 мая, вс
вс1600:00+18ссз22704 0.0 101311
03:00+16с227998 0.0 101326
06:00+17ссв2585100 0.0 1012136
09:00+22всв4561100 0.0 1012469
12:00+25вюв6839100 0.0 1012836
15:00+27вюв7104097 0.0 10101232
18:00+24в51054100 0.0 1009325
21:00+19в41166100 0.0 1008165
17 мая, пн
пн1700:00+20вюв6164932 0.0 1008356
03:00+16в516575 0.0 1007326
06:00+16вюв516565 0.0 1007441
09:00+22юв8134824 0.0 1008805
12:00+24юв8104675 0.0 10081030
15:00+26ююв78451 0.0 10081376
18:00+25ююв465858 0.0 1007387
21:00+19ююз3580100 0.0 100870
18 мая, вт
вт1800:00+16юз378956 0.4 1009172
03:00+15юз229179 1.8 100940
06:00+16зюз488990 0.6 1010300
09:00+18з577225 0.6 1010565
12:00+21з44635 0.0 1011807
15:00+24юз4450100 0.0 10101999
18:00+21юз6863100 0.0 1010652
21:00+16юз49825 0.0 1011201
19 мая, ср
ср1900:00+14юз411867 0.0 1011260
03:00+14ююз512865 0.0 1011318
06:00+14юз5118975 0.0 1011383
09:00+18ююз7107416 0.0 1011844
12:00+20ююз81065100 0.1 10111127
15:00+18юз61077100 0.1 1012771
18:00+20юз576699 0.1 10121041
21:00+15юз4784100 0.2 1014180